Regional Weather Roundup
Issued by NWS Jackson, KY

Home | Current Version | Previous Version | Graphics & Text | Print | Product List | Glossary On
Versions: 1 2 3 4 5 6 7 8 9 10 11 12 13 14 15 16 17 18 19 20 21 22 23 24 25 26 27 28 29 30 31 32 33 34 35 36 37 38 39 40 41 42 43 44 45 46 47 48 49 50
000
ASUS43 KJKL 020210
RWRJKL

EAST KENTUCKY HOURLY WEATHER ROUNDUP
NATIONAL WEATHER SERVICE JACKSON KY
1000 PM EDT WED JUL 01 2015

NOTE: "FAIR" INDICATES FEW OR NO CLOUDS BELOW 12,000 FEET WITH
NO SIGNIFICANT WEATHER AND/OR OBSTRUCTIONS TO VISIBILITY.

* THESE REPORTS ARE NOT UNDER NWS QUALITY CONTROL AND MAY NOT
  REPORT WEATHER SUCH AS PRECIPITATION AND FOG.

KYZ079-080-083-085-087-088-110-112-115-119-120-020300
...EASTERN KENTUCKY...

CITY           SKY/WX    TMP DP  RH WIND       PRES   REMARKS
JACKSON        CLOUDY    70  66  87 CALM      29.97R
LONDON         RAIN      70  63  78 SW10      29.98R
SOMERSET*      CLOUDY    66  66 100 SW9       29.98S
MONTICELLO*    CLOUDY    68  68 100 CALM      30.01S FOG
MIDDLESBORO*   CLOUDY    71  65  81 W3        29.98R
HARLAN APT*      N/A     68  68 100 CALM      29.99R VSB 1
HAZARD APT*    MOCLDY    70  68  94 CALM      29.97R
BLACK MTN*       N/A     61  61 100 W5          N/A
PIKEVILLE APT* CLOUDY    70  66  88 CALM      29.97R
BIG SANDY*     CLOUDY    69  69  98 CALM      29.96R FOG
MOREHEAD APT*  CLOUDY    68  66  94 CALM      29.96S FOG
$$

KYZ035-036-041-042-044-050-067-078-099-020300
...CENTRAL KENTUCKY...

CITY           SKY/WX    TMP DP  RH WIND       PRES   REMARKS
MT STERLING*   CLOUDY    70  68  94 CALM      29.96R FOG
FLEMING/MASON* PTCLDY    68  66  94 S5        29.95R
DANVILLE*      CLOUDY    70  68  94 CALM      29.96R
RICHMOND*      CLOUDY    72  68  88 CALM      29.94S
LEXINGTON      CLOUDY    71  69  93 S5        29.94R FOG
FRANKFORT      MOCLDY    71  67  87 CALM      29.92R
$$

KYZ091>093-OHZ055-061-077-WVZ005-015-034-035-042-020300
...SOUTHERN OHIO/WEST VIRGINIA...

CITY           SKY/WX    TMP DP  RH WIND       PRES   REMARKS
COVINGTON      CLOUDY    71  65  81 CALM      29.93R
COLUMBUS       CLOUDY    70  59  68 NE3       29.92R
DAYTON         MOCLDY    72  62  71 N3        29.94S
WILMINGTON     CLEAR     66  62  87 CALM      29.93R
HUNTINGTON     CLOUDY    72  68  87 CALM      29.92R
CHARLESTON     PTCLDY    70  67  90 CALM      29.92S
PINEVILLE*     CLOUDY    67  67 100 MISG      30.02R FOG
BECKLEY        CLOUDY    68  62  81 SW6       30.00S
BLUEFIELD      CLOUDY    68  62  81 W6        30.03S
$$

VAZ002-007-008-TNZ017-027-036-066-071-020300
...SOUTHWEST VIRGINIA/EAST TENNESSEE...

CITY           SKY/WX    TMP DP  RH WIND       PRES   REMARKS
WISE*          CLOUDY    64  64 100 W8        30.03S
JONESVILLE*      N/A    N/A N/A N/A MISG        N/A
ABINGDON*      CLOUDY    67  67  99 W3        30.01F
BRISTOL        CLOUDY    67  66  97 N3        29.98F FOG
KNOXVILLE      CLOUDY    69  66  90 W10       29.98
OAK RIDGE      CLOUDY    72  67  84 VRB5      30.00R
CROSSVILLE     CLOUDY    67  63  87 SW6       30.04R
NASHVILLE      CLOUDY    70  69  97 S8        29.98F
$$

...KEY TO REMARKS...
VSB - VISIBILITY IN MILES
WCI - WIND CHILL INDEX
HX  - HEAT INDEX

$$


USA.gov is the U.S. government's official web portal to all federal, state and local government web resources and services.